| time (UTC) | temp F | wind direction | speed MPH | gust MPH | rain 1hr in | rain 24hr in | rain mn in | humidity % | barometer mb |
| 20260906191027 | 87 | 121 | 5.0 | 9.0 | 0.00 | 0.08 | 0.00 | 100 | 1013.4 |
| 20260906190528 | 88 | 128 | 3.0 | 9.0 | 0.00 | 0.08 | 0.00 | 100 | 1013.6 |
| 20260906190030 | 87 | 135 | 4.0 | 9.0 | 0.00 | 0.08 | 0.00 | 100 | 1013.6 |
| 20260906185529 | 87 | 122 | 3.0 | 9.0 | 0.00 | 0.08 | 0.00 | 100 | 1013.7 |
| 20260906185026 | 87 | 121 | 4.0 | 9.0 | 0.00 | 0.08 | 0.00 | 100 | 1013.6 |
| 20260906184526 | 89 | 150 | 4.0 | 8.0 | 0.00 | 0.08 | 0.00 | 100 | 1013.8 |
| 20260906184026 | 88 | 126 | 2.0 | 5.0 | 0.00 | 0.08 | 0.00 | 100 | 1013.9 |
| 20260906183528 | 86 | 157 | 3.0 | 7.0 | 0.00 | 0.08 | 0.00 | 100 | 1014.0 |
| 20260906183027 | 86 | 136 | 4.0 | 7.0 | 0.00 | 0.08 | 0.00 | 100 | 1014.1 |
| 20260906182528 | 86 | 99 | 2.0 | 7.0 | 0.00 | 0.08 | 0.00 | 100 | 1014.1 |
| 20260906182025 | 86 | 114 | 2.0 | 9.0 | 0.00 | 0.08 | 0.00 | 100 | 1014.2 |
| 20260906181541 | 87 | 155 | 3.0 | 8.0 | 0.00 | 0.08 | 0.00 | 100 | 1014.1 |
| 20260906181025 | 87 | 127 | 2.0 | 9.0 | 0.00 | 0.08 | 0.00 | 100 | 1014.1 |
| 20260906180524 | 87 | 115 | 3.0 | 9.0 | 0.00 | 0.08 | 0.00 | 100 | 1014.1 |
| 20260906180031 | 87 | 142 | 4.0 | 9.0 | 0.00 | 0.08 | 0.00 | 100 | 1014.1 |
| 20260906175525 | 87 | 123 | 2.0 | 6.0 | 0.00 | 0.08 | 0.00 | 100 | 1014.1 |
| 20260906175028 | 87 | 120 | 2.0 | 8.0 | 0.00 | 0.08 | 0.00 | 100 | 1014.1 |
| 20260906174526 | 88 | 78 | 1.0 | 8.0 | 0.00 | 0.08 | 0.00 | 100 | 1014.1 |
| 20260906174027 | 90 | 329 | 0.0 | 6.0 | 0.00 | 0.08 | 0.00 | 100 | 1014.2 |
| 20260906173524 | 92 | 334 | 3.0 | 6.0 | 0.00 | 0.08 | 0.00 | 100 | 1014.2 |
| 20260906173020 | 91 | 302 | 1.0 | 5.0 | 0.00 | 0.08 | 0.00 | 100 | 1014.2 |
| 20260906172517 | 90 | 290 | 1.0 | 7.0 | 0.00 | 0.08 | 0.00 | 100 | 1014.1 |
| 20260906172019 | 91 | 224 | 2.0 | 7.0 | 0.00 | 0.08 | 0.00 | 100 | 1014.1 |
| 20260906171515 | 91 | 323 | 0.0 | 9.0 | 0.00 | 0.08 | 0.00 | 100 | 1014.1 |
| 20260906171015 | 93 | 286 | 2.0 | 9.0 | 0.00 | 0.08 | 0.00 | 100 | 1014.1 |
| 20260906170516 | 93 | 42 | 3.0 | 8.0 | 0.00 | 0.08 | 0.00 | 100 | 1014.1 |
| 20260906170010 | 92 | 339 | 3.0 | 8.0 | 0.00 | 0.08 | 0.00 | 100 | 1014.2 |
| 20260906165511 | 91 | 213 | 1.0 | 8.0 | 0.00 | 0.08 | 0.00 | 100 | 1014.2 |
| 20260906165007 | 91 | 239 | 1.0 | 11.0 | 0.00 | 0.08 | 0.00 | 100 | 1014.3 |
| 20260906164506 | 92 | 322 | 3.0 | 8.0 | 0.00 | 0.08 | 0.00 | 100 | 1014.4 |
| 20260906164006 | 91 | 285 | 2.0 | 8.0 | 0.00 | 0.08 | 0.00 | 100 | 1014.4 |
| 20260906163504 | 90 | 333 | 2.0 | 8.0 | 0.00 | 0.08 | 0.00 | 100 | 1014.4 |
| 20260906163002 | 90 | 313 | 1.0 | 8.0 | 0.00 | 0.08 | 0.00 | 100 | 1014.4 |
| 20260906162504 | 90 | 333 | 2.0 | 6.0 | 0.00 | 0.08 | 0.00 | 100 | 1014.5 |
| 20260906162059 | 90 | 296 | 1.0 | 8.0 | 0.00 | 0.08 | 0.00 | 100 | 1014.6 |
| 20260906161559 | 90 | 292 | 1.0 | 8.0 | 0.00 | 0.08 | 0.00 | 100 | 1014.6 |
| 20260906161057 | 89 | 289 | 1.0 | 6.0 | 0.00 | 0.08 | 0.00 | 100 | 1014.6 |
| 20260906160555 | 89 | 227 | 0.0 | 6.0 | 0.00 | 0.08 | 0.00 | 100 | 1014.8 |
| 20260906160054 | 90 | 303 | 3.0 | 7.0 | 0.00 | 0.08 | 0.00 | 100 | 1014.9 |
| 20260906155552 | 90 | 344 | 1.0 | 6.0 | 0.00 | 0.08 | 0.00 | 100 | 1015.0 |
| 20260906155049 | 89 | 225 | 1.0 | 5.0 | 0.00 | 0.08 | 0.00 | 100 | 1015.0 |
| 20260906154548 | 89 | 341 | 1.0 | 3.0 | 0.00 | 0.08 | 0.00 | 100 | 1015.2 |
| 20260906154048 | 89 | 265 | 1.0 | 8.0 | 0.00 | 0.08 | 0.00 | 100 | 1015.2 |
| 20260906153545 | 88 | 254 | 2.0 | 8.0 | 0.00 | 0.08 | 0.00 | 100 | 1015.3 |
| 20260906153046 | 88 | 287 | 2.0 | 6.0 | 0.00 | 0.08 | 0.00 | 100 | 1015.4 |
| 20260906152545 | 88 | 311 | 2.0 | 5.0 | 0.00 | 0.08 | 0.00 | 100 | 1015.5 |
| 20260906152045 | 88 | 289 | 1.0 | 6.0 | 0.00 | 0.08 | 0.00 | 100 | 1015.5 |
| 20260906151545 | 87 | 334 | 3.0 | 6.0 | 0.00 | 0.08 | 0.00 | 100 | 1015.5 |
| 20260906151040 | 87 | 263 | 1.0 | 4.0 | 0.00 | 0.08 | 0.00 | 100 | 1015.4 |
| 20260906150537 | 87 | 328 | 0.0 | 5.0 | 0.00 | 0.08 | 0.00 | 100 | 1015.4 |
| 20260906150035 | 86 | 282 | 2.0 | 4.0 | 0.00 | 0.08 | 0.00 | 100 | 1015.6 |
| 20260906145534 | 85 | 301 | 1.0 | 5.0 | 0.00 | 0.08 | 0.00 | 100 | 1015.6 |
| 20260906145035 | 86 | 306 | 0.0 | 5.0 | 0.00 | 0.08 | 0.00 | 100 | 1015.6 |
| 20260906144536 | 86 | 256 | 0.0 | 4.0 | 0.00 | 0.08 | 0.00 | 100 | 1015.6 |
| 20260906144029 | 86 | 279 | 1.0 | 4.0 | 0.00 | 0.08 | 0.00 | 100 | 1015.6 |
| 20260906143528 | 86 | 303 | 0.0 | 6.0 | 0.00 | 0.08 | 0.00 | 100 | 1015.5 |
| 20260906143026 | 85 | 349 | 2.0 | 6.0 | 0.00 | 0.08 | 0.00 | 100 | 1015.4 |
| 20260906142525 | 85 | 324 | 0.0 | 5.0 | 0.00 | 0.08 | 0.00 | 100 | 1015.4 |
| 20260906142024 | 85 | 326 | 2.0 | 6.0 | 0.00 | 0.08 | 0.00 | 100 | 1015.3 |
| 20260906141529 | 84 | 309 | 2.0 | 8.0 | 0.00 | 0.08 | 0.00 | 100 | 1015.3 |
| 20260906141021 | 84 | 299 | 1.0 | 8.0 | 0.00 | 0.08 | 0.00 | 100 | 1015.4 |
| 20260906140520 | 83 | 284 | 0.0 | 5.0 | 0.00 | 0.08 | 0.00 | 100 | 1015.4 |
| 20260906140020 | 83 | 290 | 1.0 | 5.0 | 0.00 | 0.08 | 0.00 | 100 | 1015.4 |
| 20260906135518 | 83 | 298 | 0.0 | 8.0 | 0.00 | 0.08 | 0.00 | 100 | 1015.4 |
| 20260906135018 | 82 | 282 | 2.0 | 8.0 | 0.00 | 0.08 | 0.00 | 100 | 1015.4 |
| 20260906134521 | 82 | 298 | 0.0 | 5.0 | 0.00 | 0.08 | 0.00 | 100 | 1015.3 |
| 20260906134018 | 82 | 303 | 0.0 | 6.0 | 0.00 | 0.08 | 0.00 | 100 | 1015.4 |
| 20260906133516 | 82 | 283 | 1.0 | 5.0 | 0.00 | 0.08 | 0.00 | 100 | 1015.4 |
| 20260906133015 | 82 | 249 | 0.0 | 5.0 | 0.00 | 0.08 | 0.00 | 100 | 1015.6 |
| 20260906132515 | 81 | 309 | 0.0 | 5.0 | 0.00 | 0.08 | 0.00 | 100 | 1015.6 |
| 20260906132015 | 81 | 272 | 0.0 | 7.0 | 0.00 | 0.08 | 0.00 | 100 | 1015.5 |
| 20260906131512 | 80 | 240 | 2.0 | 7.0 | 0.00 | 0.08 | 0.00 | 100 | 1015.4 |
| 20260906131010 | 80 | 16 | 3.0 | 6.0 | 0.00 | 0.08 | 0.00 | 100 | 1015.4 |
| 20260906130509 | 80 | 256 | 0.0 | 8.0 | 0.00 | 0.08 | 0.00 | 100 | 1015.6 |
| 20260906130008 | 79 | 235 | 2.0 | 9.0 | 0.00 | 0.08 | 0.00 | 100 | 1015.7 |
| 20260906125507 | 79 | 249 | 0.0 | 9.0 | 0.00 | 0.08 | 0.00 | 100 | 1015.6 |
| 20260906125007 | 79 | 280 | 2.0 | 8.0 | 0.00 | 0.08 | 0.00 | 100 | 1015.5 |
| 20260906124506 | 79 | 231 | 0.0 | 4.0 | 0.00 | 0.08 | 0.00 | 100 | 1015.5 |
| 20260906124005 | 78 | 248 | 0.0 | 4.0 | 0.00 | 0.08 | 0.00 | 100 | 1015.6 |
| 20260906123504 | 78 | 231 | 0.0 | 8.0 | 0.00 | 0.08 | 0.00 | 100 | 1015.5 |
| 20260906123005 | 77 | 234 | 2.0 | 8.0 | 0.00 | 0.08 | 0.00 | 100 | 1015.5 |
| 20260906122502 | 77 | 244 | 0.0 | 5.0 | 0.00 | 0.08 | 0.00 | 100 | 1015.3 |
| 20260906122002 | 77 | 234 | 1.0 | 5.0 | 0.00 | 0.08 | 0.00 | 100 | 1015.3 |
| 20260906121601 | 76 | 244 | 0.0 | 4.0 | 0.00 | 0.08 | 0.00 | 100 | 1015.3 |
| 20260906121101 | 76 | 292 | 0.0 | 4.0 | 0.00 | 0.08 | 0.00 | 100 | 1015.3 |
| 20260906120603 | 75 | 278 | 1.0 | 5.0 | 0.00 | 0.08 | 0.00 | 100 | 1015.2 |
| 20260906120059 | 75 | 227 | 1.0 | 5.0 | 0.00 | 0.08 | 0.00 | 100 | 1015.2 |
| 20260906115559 | 75 | 227 | 1.0 | 4.0 | 0.00 | 0.08 | 0.00 | 100 | 1015.1 |
| 20260906115100 | 75 | 228 | 1.0 | 4.0 | 0.00 | 0.08 | 0.00 | 100 | 1015.1 |
| 20260906114601 | 75 | 241 | 0.0 | 5.0 | 0.00 | 0.08 | 0.00 | 100 | 1015.0 |
| 20260906114100 | 75 | 241 | 1.0 | 5.0 | 0.00 | 0.08 | 0.00 | 100 | 1015.1 |
| 20260906113559 | 75 | 238 | 1.0 | 7.0 | 0.00 | 0.08 | 0.00 | 100 | 1015.0 |
| 20260906113058 | 75 | 231 | 0.0 | 6.0 | 0.00 | 0.08 | 0.00 | 100 | 1014.9 |
| 20260906112558 | 75 | 232 | 0.0 | 7.0 | 0.00 | 0.08 | 0.00 | 100 | 1014.7 |
| 20260906112058 | 75 | 241 | 1.0 | 7.0 | 0.00 | 0.08 | 0.00 | 100 | 1014.7 |
| 20260906111600 | 75 | 236 | 1.0 | 4.0 | 0.00 | 0.08 | 0.00 | 100 | 1014.6 |
| 20260906111059 | 75 | 240 | 2.0 | 4.0 | 0.00 | 0.08 | 0.00 | 100 | 1014.5 |
| 20260906110557 | 75 | 232 | 0.0 | 5.0 | 0.00 | 0.08 | 0.00 | 100 | 1014.5 |
| 20260906110058 | 75 | 234 | 1.0 | 6.0 | 0.00 | 0.08 | 0.00 | 100 | 1014.4 |
| 20260906105557 | 75 | 242 | 1.0 | 7.0 | 0.00 | 0.08 | 0.00 | 100 | 1014.2 |
| 20260906105057 | 75 | 233 | 0.0 | 3.0 | 0.00 | 0.08 | 0.00 | 100 | 1014.1 |
| 20260906104603 | 75 | 229 | 1.0 | 3.0 | 0.00 | 0.08 | 0.00 | 100 | 1014.0 |
| 20260906104057 | 75 | 227 | 1.0 | 3.0 | 0.00 | 0.08 | 0.00 | 100 | 1014.1 |
| 20260906103556 | 75 | 227 | 0.0 | 3.0 | 0.00 | 0.08 | 0.00 | 100 | 1013.9 |
| 20260906103058 | 75 | 227 | 0.0 | 3.0 | 0.00 | 0.08 | 0.00 | 100 | 1013.9 |
| 20260906102557 | 75 | 227 | 0.0 | 2.0 | 0.00 | 0.08 | 0.00 | 100 | 1013.8 |
| 20260906102056 | 75 | 227 | 0.0 | 1.0 | 0.00 | 0.08 | 0.00 | 100 | 1013.8 |
| 20260906101559 | 75 | 227 | 0.0 | 4.0 | 0.00 | 0.08 | 0.00 | 100 | 1013.7 |
| 20260906101100 | 75 | 227 | 1.0 | 4.0 | 0.00 | 0.08 | 0.00 | 100 | 1013.6 |
| 20260906100600 | 75 | 227 | 0.0 | 4.0 | 0.00 | 0.08 | 0.00 | 100 | 1013.6 |
| 20260906100055 | 75 | 225 | 0.0 | 3.0 | 0.00 | 0.08 | 0.00 | 100 | 1013.6 |
| 20260906095558 | 75 | 225 | 0.0 | 3.0 | 0.00 | 0.08 | 0.00 | 100 | 1013.5 |
| 20260906095056 | 75 | 223 | 0.0 | 3.0 | 0.00 | 0.08 | 0.00 | 100 | 1013.4 |
| 20260906094608 | 75 | 220 | 0.0 | 3.0 | 0.00 | 0.08 | 0.00 | 100 | 1013.5 |
| 20260906094054 | 75 | 211 | 0.0 | 0.0 | 0.00 | 0.08 | 0.00 | 100 | 1013.5 |
| 20260906093554 | 75 | 212 | 0.0 | 0.0 | 0.00 | 0.08 | 0.00 | 100 | 1013.3 |
| 20260906093128 | 75 | 238 | 0.0 | 0.0 | 0.00 | 0.08 | 0.00 | 100 | 1013.1 |
| 20260906092555 | 75 | 242 | 0.0 | 0.0 | 0.00 | 0.08 | 0.00 | 100 | 1012.9 |
| 20260906092055 | 75 | 245 | 0.0 | 0.0 | 0.00 | 0.08 | 0.00 | 100 | 1012.8 |
| 20260906091605 | 75 | 246 | 0.0 | 0.0 | 0.00 | 0.08 | 0.00 | 100 | 1012.8 |
| 20260906091057 | 75 | 248 | 0.0 | 0.0 | 0.00 | 0.08 | 0.00 | 100 | 1012.8 |
| 20260906090555 | 76 | 248 | 0.0 | 0.0 | 0.00 | 0.08 | 0.00 | 100 | 1012.7 |
| 20260906090054 | 76 | 248 | 0.0 | 4.0 | 0.00 | 0.08 | 0.00 | 100 | 1012.6 |
| 20260906085555 | 76 | 234 | 1.0 | 4.0 | 0.00 | 0.08 | 0.00 | 100 | 1012.5 |
| 20260906085054 | 76 | 244 | 1.0 | 4.0 | 0.00 | 0.08 | 0.00 | 100 | 1012.5 |
| 20260906084553 | 76 | 268 | 1.0 | 4.0 | 0.00 | 0.08 | 0.00 | 100 | 1012.6 |
| 20260906084055 | 76 | 275 | 0.0 | 4.0 | 0.00 | 0.08 | 0.00 | 100 | 1012.6 |
| 20260906083552 | 76 | 294 | 0.0 | 4.0 | 0.00 | 0.08 | 0.00 | 100 | 1012.7 |
| 20260906083052 | 76 | 285 | 0.0 | 4.0 | 0.00 | 0.08 | 0.00 | 100 | 1012.7 |
| 20260906082552 | 76 | 283 | 0.0 | 3.0 | 0.00 | 0.08 | 0.00 | 100 | 1012.8 |
| 20260906082051 | 76 | 280 | 0.0 | 3.0 | 0.00 | 0.08 | 0.00 | 100 | 1012.9 |
| 20260906081552 | 76 | 241 | 0.0 | 5.0 | 0.00 | 0.08 | 0.00 | 100 | 1012.9 |
| 20260906081051 | 76 | 234 | 2.0 | 5.0 | 0.00 | 0.08 | 0.00 | 100 | 1012.6 |
| 20260906080551 | 76 | 227 | 0.0 | 4.0 | 0.00 | 0.08 | 0.00 | 100 | 1012.7 |
| 20260906080050 | 76 | 273 | 0.0 | 3.0 | 0.00 | 0.08 | 0.00 | 100 | 1012.8 |
| 20260906075550 | 76 | 242 | 0.0 | 5.0 | 0.00 | 0.08 | 0.00 | 100 | 1012.7 |
| 20260906075051 | 76 | 234 | 2.0 | 5.0 | 0.00 | 0.08 | 0.00 | 100 | 1012.5 |
| 20260906074553 | 76 | 254 | 1.0 | 3.0 | 0.00 | 0.08 | 0.00 | 100 | 1012.6 |
| 20260906074049 | 76 | 261 | 0.0 | 3.0 | 0.00 | 0.08 | 0.00 | 100 | 1012.7 |
| 20260906073548 | 76 | 249 | 0.0 | 0.0 | 0.00 | 0.08 | 0.00 | 100 | 1013.0 |
| 20260906073047 | 76 | 255 | 0.0 | 0.0 | 0.00 | 0.08 | 0.00 | 100 | 1012.9 |
| 20260906072549 | 76 | 259 | 0.0 | 4.0 | 0.00 | 0.08 | 0.00 | 100 | 1012.9 |
| 20260906072046 | 76 | 275 | 1.0 | 4.0 | 0.00 | 0.08 | 0.00 | 100 | 1013.0 |
| 20260906071546 | 76 | 257 | 0.0 | 3.0 | 0.00 | 0.08 | 0.00 | 100 | 1013.2 |
| 20260906071046 | 76 | 285 | 1.0 | 4.0 | 0.00 | 0.08 | 0.00 | 100 | 1013.2 |
| 20260906070545 | 76 | 277 | 1.0 | 4.0 | 0.00 | 0.08 | 0.00 | 100 | 1013.2 |
| 20260906070045 | 76 | 233 | 0.0 | 4.0 | 0.00 | 0.08 | 0.00 | 100 | 1013.2 |
| 20260906065545 | 76 | 233 | 0.0 | 4.0 | 0.00 | 0.08 | 0.00 | 100 | 1013.2 |
| 20260906065044 | 76 | 242 | 0.0 | 4.0 | 0.00 | 0.08 | 0.00 | 100 | 1013.4 |
| 20260906064544 | 76 | 242 | 0.0 | 5.0 | 0.00 | 0.08 | 0.00 | 100 | 1013.4 |
| 20260906064043 | 76 | 242 | 2.0 | 5.0 | 0.00 | 0.08 | 0.00 | 100 | 1013.6 |
| 20260906063542 | 76 | 246 | 0.0 | 5.0 | 0.00 | 0.08 | 0.00 | 100 | 1013.6 |
| 20260906063041 | 76 | 240 | 0.0 | 6.0 | 0.00 | 0.08 | 0.00 | 100 | 1013.7 |
| 20260906062540 | 76 | 202 | 2.0 | 6.0 | 0.00 | 0.08 | 0.00 | 100 | 1013.9 |
| 20260906062040 | 76 | 222 | 0.0 | 5.0 | 0.00 | 0.08 | 0.00 | 100 | 1013.9 |
| 20260906061540 | 76 | 238 | 1.0 | 5.0 | 0.00 | 0.08 | 0.00 | 100 | 1014.0 |
| 20260906061039 | 76 | 195 | 0.0 | 4.0 | 0.00 | 0.08 | 0.00 | 100 | 1014.1 |
| 20260906060538 | 76 | 215 | 1.0 | 4.0 | 0.00 | 0.08 | 0.00 | 100 | 1014.0 |
| 20260906060036 | 75 | 212 | 1.0 | 4.0 | 0.00 | 0.08 | 0.00 | 100 | 1014.3 |
| 20260906055538 | 75 | 210 | 1.0 | 4.0 | 0.00 | 0.08 | 0.00 | 100 | 1014.5 |
| 20260906055037 | 75 | 217 | 0.0 | 5.0 | 0.00 | 0.08 | 0.00 | 100 | 1014.6 |
| 20260906054540 | 75 | 241 | 2.0 | 5.0 | 0.00 | 0.08 | 0.00 | 100 | 1014.6 |
| 20260906054037 | 75 | 202 | 0.0 | 0.0 | 0.00 | 0.08 | 0.00 | 100 | 1014.6 |
| 20260906053533 | 75 | 202 | 0.0 | 4.0 | 0.00 | 0.08 | 0.00 | 100 | 1014.7 |
| 20260906053039 | 75 | 205 | 1.0 | 4.0 | 0.00 | 0.08 | 0.00 | 100 | 1014.7 |
| 20260906052534 | 75 | 183 | 0.0 | 2.0 | 0.00 | 0.08 | 0.00 | 100 | 1014.7 |
| 20260906052034 | 75 | 183 | 0.0 | 3.0 | 0.00 | 0.08 | 0.00 | 100 | 1014.8 |
| 20260906051546 | 75 | 175 | 0.0 | 3.0 | 0.00 | 0.08 | 0.00 | 100 | 1014.9 |
| 20260906051031 | 75 | 191 | 0.0 | 4.0 | 0.00 | 0.08 | 0.00 | 100 | 1014.9 |
| 20260906050528 | 75 | 192 | 0.0 | 4.0 | 0.00 | 0.08 | 0.00 | 100 | 1015.0 |
| 20260906050026 | 75 | 192 | 1.0 | 4.0 | 0.00 | 0.08 | 0.00 | 100 | 1014.9 |
| 20260906045528 | 75 | 195 | 2.0 | 3.0 | 0.00 | 0.08 | 0.00 | 100 | 1015.1 |
| 20260906045026 | 75 | 200 | 1.0 | 3.0 | 0.00 | 0.08 | 0.00 | 100 | 1015.1 |
| 20260906044525 | 75 | 213 | 0.0 | 3.0 | 0.00 | 0.08 | 0.00 | 100 | 1015.1 |
| 20260906044025 | 75 | 209 | 0.0 | 3.0 | 0.00 | 0.08 | 0.00 | 100 | 1015.1 |
| 20260906043525 | 75 | 207 | 0.0 | 4.0 | 0.00 | 0.08 | 0.00 | 100 | 1015.1 |
| 20260906043025 | 75 | 207 | 1.0 | 4.0 | 0.00 | 0.08 | 0.00 | 100 | 1015.3 |
| 20260906042525 | 75 | 222 | 1.0 | 3.0 | 0.00 | 0.08 | 0.00 | 100 | 1015.3 |
| 20260906042024 | 75 | 222 | 0.0 | 3.0 | 0.00 | 0.08 | 0.00 | 100 | 1015.3 |
| 20260906041524 | 75 | 204 | 0.0 | 3.0 | 0.00 | 0.08 | 0.00 | 100 | 1015.3 |
| 20260906041025 | 75 | 205 | 0.0 | 6.0 | 0.00 | 0.08 | 0.00 | 100 | 1015.2 |
| 20260906040523 | 75 | 204 | 2.0 | 12.0 | 0.00 | 0.08 | 0.00 | 100 | 1015.1 |
| 20260906040028 | 75 | 222 | 3.0 | 12.0 | 0.00 | 0.08 | 0.00 | 100 | 1014.9 |
| 20260906035520 | 75 | 192 | 2.0 | 6.0 | 0.00 | 0.08 | 0.00 | 100 | 1015.0 |
| 20260906035023 | 75 | 219 | 3.0 | 8.0 | 0.00 | 0.08 | 0.00 | 100 | 1015.0 |
| 20260906034522 | 75 | 213 | 3.0 | 6.0 | 0.00 | 0.08 | 0.08 | 100 | 1014.8 |
| 20260906034018 | 75 | 180 | 2.0 | 8.0 | 0.00 | 0.08 | 0.08 | 100 | 1014.9 |
| 20260906033519 | 75 | 227 | 1.0 | 8.0 | 0.00 | 0.08 | 0.08 | 100 | 1015.0 |
| 20260906033030 | 75 | 235 | 2.0 | 7.0 | 0.00 | 0.08 | 0.08 | 100 | 1014.9 |
| 20260906032518 | 75 | 240 | 2.0 | 7.0 | 0.00 | 0.08 | 0.08 | 100 | 1014.7 |
| 20260906032019 | 75 | 207 | 1.0 | 7.0 | 0.00 | 0.08 | 0.08 | 100 | 1014.7 |
| 20260906031518 | 75 | 219 | 2.0 | 8.0 | 0.00 | 0.08 | 0.08 | 100 | 1014.9 |
| 20260906031018 | 75 | 228 | 1.0 | 5.0 | 0.01 | 0.08 | 0.08 | 100 | 1015.0 |
| 20260906030518 | 75 | 236 | 2.0 | 4.0 | 0.01 | 0.08 | 0.08 | 100 | 1015.1 |
| 20260906030018 | 75 | 236 | 0.0 | 0.0 | 0.01 | 0.08 | 0.08 | 100 | 1015.2 |
| 20260906025517 | 75 | 236 | 0.0 | 0.0 | 0.01 | 0.08 | 0.08 | 100 | 1015.2 |
| 20260906025019 | 75 | 237 | 0.0 | 0.0 | 0.01 | 0.08 | 0.08 | 100 | 1015.3 |
| 20260906024532 | 75 | 237 | 0.0 | 0.0 | 0.01 | 0.08 | 0.08 | 100 | 1015.2 |
| 20260906024016 | 75 | 237 | 0.0 | 3.0 | 0.01 | 0.08 | 0.08 | 100 | 1015.1 |
| 20260906023516 | 75 | 237 | 0.0 | 5.0 | 0.01 | 0.08 | 0.08 | 100 | 1015.1 |
| 20260906023019 | 75 | 236 | 0.0 | 4.0 | 0.01 | 0.08 | 0.08 | 100 | 1015.1 |
| 20260906022516 | 75 | 206 | 0.0 | 4.0 | 0.01 | 0.08 | 0.08 | 100 | 1015.2 |
| 20260906022019 | 75 | 194 | 0.0 | 4.0 | 0.01 | 0.08 | 0.08 | 100 | 1015.1 |
| 20260906021517 | 75 | 224 | 0.0 | 4.0 | 0.01 | 0.08 | 0.08 | 100 | 1015.3 |
| 20260906021016 | 75 | 220 | 1.0 | 5.0 | 0.00 | 0.07 | 0.07 | 100 | 1015.3 |
| 20260906020516 | 75 | 236 | 1.0 | 5.0 | 0.00 | 0.07 | 0.07 | 100 | 1015.1 |
| 20260906020015 | 75 | 242 | 2.0 | 4.0 | 0.00 | 0.07 | 0.07 | 100 | 1015.2 |
| 20260906015514 | 75 | 248 | 0.0 | 3.0 | 0.00 | 0.07 | 0.07 | 100 | 1015.1 |
| 20260906015015 | 76 | 257 | 0.0 | 4.0 | 0.00 | 0.07 | 0.07 | 100 | 1015.1 |
| 20260906014524 | 76 | 200 | 0.0 | 4.0 | 0.00 | 0.07 | 0.07 | 100 | 1015.1 |
| 20260906014013 | 76 | 288 | 1.0 | 4.0 | 0.00 | 0.07 | 0.07 | 100 | 1015.1 |
| 20260906013514 | 75 | 253 | 1.0 | 4.0 | 0.00 | 0.07 | 0.07 | 100 | 1015.0 |
| 20260906013034 | 76 | 233 | 0.0 | 4.0 | 0.00 | 0.07 | 0.07 | 100 | 1014.9 |
| 20260906012517 | 75 | 234 | 2.0 | 5.0 | 0.00 | 0.07 | 0.07 | 100 | 1014.9 |
| 20260906012014 | 75 | 192 | 2.0 | 7.0 | 0.00 | 0.07 | 0.07 | 100 | 1015.1 |
| 20260906011518 | 76 | 167 | 2.0 | 6.0 | 0.00 | 0.07 | 0.07 | 100 | 1015.2 |
| 20260906011013 | 76 | 227 | 3.0 | 6.0 | 0.00 | 0.07 | 0.07 | 100 | 1015.3 |
| 20260906010514 | 76 | 188 | 3.0 | 10.0 | 0.00 | 0.07 | 0.07 | 100 | 1015.4 |
| 20260906010013 | 76 | 161 | 3.0 | 10.0 | 0.00 | 0.07 | 0.07 | 100 | 1015.5 |
| 20260906005512 | 76 | 165 | 2.0 | 10.0 | 0.00 | 0.07 | 0.07 | 100 | 1015.7 |
| 20260906005012 | 75 | 165 | 5.0 | 13.0 | 0.00 | 0.07 | 0.07 | 100 | 1015.9 |
| 20260906004511 | 75 | 142 | 4.0 | 15.0 | 0.00 | 0.07 | 0.07 | 100 | 1015.9 |
| 20260906004012 | 75 | 181 | 8.0 | 15.0 | 0.00 | 0.07 | 0.07 | 100 | 1016.0 |
| 20260906003511 | 75 | 157 | 5.0 | 15.0 | 0.00 | 0.07 | 0.07 | 100 | 1016.1 |
| 20260906003012 | 75 | 135 | 9.0 | 15.0 | 0.00 | 0.07 | 0.07 | 100 | 1016.1 |
| 20260906002509 | 76 | 163 | 6.0 | 13.0 | 0.00 | 0.07 | 0.07 | 100 | 1016.1 |
| 20260906002008 | 76 | 181 | 5.0 | 13.0 | 0.00 | 0.07 | 0.07 | 100 | 1016.0 |
| 20260906001506 | 77 | 222 | 5.0 | 11.0 | 0.00 | 0.07 | 0.07 | 100 | 1016.0 |
| 20260906001005 | 78 | 246 | 5.0 | 17.0 | 0.00 | 0.07 | 0.07 | 100 | 1015.8 |
| 20260906000506 | 80 | 208 | 5.0 | 17.0 | 0.00 | 0.07 | 0.07 | 100 | 1016.1 |
| 20260906000004 | 80 | 94 | 0.0 | 2.0 | 0.00 | 0.07 | 0.07 | 100 | 1015.3 |
| 20260905235506 | 80 | 96 | 0.0 | 4.0 | 0.00 | 0.07 | 0.07 | 100 | 1015.3 |
| 20260905235004 | 80 | 44 | 1.0 | 6.0 | 0.00 | 0.07 | 0.07 | 100 | 1015.5 |
| 20260905234504 | 80 | 119 | 2.0 | 16.0 | 0.00 | 0.07 | 0.07 | 100 | 1015.7 |
| 20260905234003 | 80 | 51 | 5.0 | 16.0 | 0.00 | 0.07 | 0.07 | 100 | 1015.8 |
| 20260905233503 | 81 | 323 | 6.0 | 14.0 | 0.00 | 0.07 | 0.07 | 100 | 1015.8 |
| 20260905233003 | 81 | 97 | 1.0 | 7.0 | 0.00 | 0.07 | 0.07 | 100 | 1015.2 |
| 20260905232503 | 81 | 104 | 2.0 | 4.0 | 0.00 | 0.07 | 0.07 | 100 | 1014.8 |
| 20260905232003 | 81 | 132 | 0.0 | 4.0 | 0.00 | 0.07 | 0.07 | 100 | 1014.6 |
| 20260905231503 | 81 | 132 | 2.0 | 6.0 | 0.00 | 0.07 | 0.07 | 100 | 1014.5 |
| 20260905231002 | 81 | 153 | 2.0 | 5.0 | 0.00 | 0.07 | 0.07 | 100 | 1014.6 |
| 20260905230503 | 81 | 163 | 3.0 | 6.0 | 0.00 | 0.07 | 0.07 | 100 | 1014.6 |
| 20260905230002 | 80 | 144 | 2.0 | 6.0 | 0.00 | 0.07 | 0.07 | 100 | 1014.5 |
| 20260905225502 | 80 | 130 | 3.0 | 7.0 | 0.00 | 0.07 | 0.07 | 100 | 1014.4 |
| 20260905225002 | 80 | 117 | 2.0 | 7.0 | 0.00 | 0.07 | 0.07 | 100 | 1014.5 |
| 20260905224503 | 80 | 156 | 2.0 | 7.0 | 0.00 | 0.07 | 0.07 | 100 | 1014.8 |
| 20260905224001 | 80 | 130 | 3.0 | 7.0 | 0.00 | 0.07 | 0.07 | 100 | 1014.8 |
| 20260905223501 | 80 | 150 | 2.0 | 10.0 | 0.00 | 0.07 | 0.07 | 100 | 1014.9 |
| 20260905223002 | 79 | 109 | 3.0 | 13.0 | 0.00 | 0.07 | 0.07 | 100 | 1015.0 |
| 20260905222501 | 79 | 133 | 4.0 | 13.0 | 0.00 | 0.07 | 0.07 | 100 | 1014.7 |
| 20260905222100 | 79 | 136 | 3.0 | 9.0 | 0.00 | 0.07 | 0.07 | 100 | 1014.5 |
| 20260905221615 | 79 | 126 | 1.0 | 7.0 | 0.01 | 0.07 | 0.07 | 100 | 1014.2 |
| 20260905221102 | 79 | 122 | 2.0 | 7.0 | 0.01 | 0.07 | 0.07 | 100 | 1013.7 |
| 20260905220600 | 79 | 117 | 2.0 | 10.0 | 0.01 | 0.07 | 0.07 | 100 | 1013.6 |
| 20260905220059 | 79 | 111 | 3.0 | 10.0 | 0.01 | 0.07 | 0.07 | 100 | 1013.6 |
| 20260905215602 | 79 | 122 | 2.0 | 6.0 | 0.02 | 0.07 | 0.07 | 100 | 1013.9 |
| 20260905215058 | 79 | 98 | 0.0 | 4.0 | 0.05 | 0.07 | 0.07 | 100 | 1014.1 |
| 20260905214601 | 79 | 93 | 2.0 | 5.0 | 0.07 | 0.07 | 0.07 | 100 | 1014.1 |
| 20260905214101 | 80 | 51 | 1.0 | 5.0 | 0.07 | 0.07 | 0.07 | 100 | 1014.4 |
| 20260905213558 | 80 | 5 | 1.0 | 5.0 | 0.07 | 0.07 | 0.07 | 100 | 1014.6 |
| 20260905213105 | 80 | 217 | 0.0 | 3.0 | 0.07 | 0.07 | 0.07 | 100 | 1014.9 |
| 20260905212558 | 79 | 248 | 0.0 | 2.0 | 0.07 | 0.07 | 0.07 | 100 | 1014.8 |
| 20260905212059 | 79 | 252 | 1.0 | 5.0 | 0.07 | 0.07 | 0.07 | 100 | 1015.1 |
| 20260905211601 | 80 | 30 | 0.0 | 0.0 | 0.06 | 0.06 | 0.06 | 100 | 1015.0 |
| 20260905211057 | 80 | 30 | 0.0 | 0.0 | 0.06 | 0.06 | 0.06 | 100 | 1014.5 |
| 20260905210557 | 80 | 30 | 0.0 | 0.0 | 0.06 | 0.06 | 0.06 | 100 | 1014.6 |
| 20260905210059 | 81 | 30 | 0.0 | 4.0 | 0.06 | 0.06 | 0.06 | 100 | 1014.6 |
| 20260905205054 | 84 | 307 | 2.0 | 7.0 | 0.02 | 0.02 | 0.02 | 100 | 1014.7 |
| 20260905204555 | 85 | 233 | 3.0 | 10.0 | 0.00 | 0.00 | 0.00 | 100 | 1014.4 |
| 20260905204053 | 85 | 343 | 2.0 | 11.0 | 0.00 | 0.00 | 0.00 | 100 | 1014.5 |
| 20260905203553 | 87 | 181 | 1.0 | 14.0 | 0.00 | 0.00 | 0.00 | 100 | 1014.4 |
| 20260905203055 | 87 | 155 | 6.0 | 14.0 | 0.00 | 0.00 | 0.00 | 100 | 1014.1 |
| 20260905202654 | 87 | 150 | 4.0 | 13.0 | 0.00 | 0.00 | 0.00 | 100 | 1014.3 |
| 20260905202055 | 87 | 146 | 6.0 | 13.0 | 0.00 | 0.00 | 0.00 | 100 | 1013.9 |
| 20260905201612 | 88 | 102 | 6.0 | 14.0 | 0.00 | 0.00 | 0.00 | 100 | 1014.0 |
| 20260905201052 | 88 | 126 | 8.0 | 17.0 | 0.00 | 0.00 | 0.00 | 100 | 1013.9 |
| 20260905200552 | 88 | 119 | 8.0 | 17.0 | 0.00 | 0.00 | 0.00 | 100 | 1013.7 |
| 20260905200054 | 88 | 152 | 9.0 | 21.0 | 0.00 | 0.00 | 0.00 | 100 | 1013.3 |
| 20260905195553 | 88 | 174 | 12.0 | 21.0 | 0.00 | 0.00 | 0.00 | 100 | 1013.4 |
| 20260905195050 | 88 | 136 | 6.0 | 18.0 | 0.00 | 0.00 | 0.00 | 100 | 1013.7 |
| 20260905194550 | 88 | 153 | 7.0 | 18.0 | 0.00 | 0.00 | 0.00 | 100 | 1014.0 |
| 20260905194051 | 88 | 111 | 7.0 | 18.0 | 0.00 | 0.00 | 0.00 | 100 | 1014.1 |
| 20260905193550 | 88 | 130 | 7.0 | 18.0 | 0.00 | 0.00 | 0.00 | 100 | 1014.1 |
| 20260905193056 | 88 | 133 | 10.0 | 18.0 | 0.00 | 0.00 | 0.00 | 100 | 1014.5 |
| 20260905192546 | 89 | 105 | 7.0 | 15.0 | 0.00 | 0.00 | 0.00 | 100 | 1014.5 |
| 20260905192045 | 88 | 151 | 7.0 | 15.0 | 0.00 | 0.00 | 0.00 | 100 | 1014.3 |
| 20260905191546 | 88 | 101 | 5.0 | 16.0 | 0.00 | 0.00 | 0.00 | 100 | 1014.4 |